• Processing (Info)

  • MPEC 2019-L41 : 2019 LX

    The following Minor Planet Electronic Circular may be linked-to from your own Web pages, but must not otherwise be redistributed electronically.

    A form allowing access to any MPEC is at the bottom of this page.


    Read MPEC 2019-L40 Read MPEC 2019-L42


    M.P.E.C. 2019-L41                                Issued 2019 June 3, 16:46 UT
    
         The Minor Planet Electronic Circulars contain information on unusual
             minor planets and routine data on comets.  They are published
        on behalf of Division F of the International Astronomical Union by the
              Minor Planet Center, Smithsonian Astrophysical Observatory,
                              Cambridge, MA 02138, U.S.A.
    
                 Prepared using the Tamkin Foundation Computer Network
    
                                  MPC@CFA.HARVARD.EDU
                URL https://www.minorplanetcenter.net/    ISSN 1523-6714
    
                                        2019 LX
    
    Observations:
         K19L00X  C2019 05 28.46554818 21 49.826+28 17 41.47         20.7 GVEL041F51
         K19L00X  C2019 05 28.48778918 21 38.073+28 15 38.93         20.7 GVEL041F51
         K19L00X* C2019 06 02.52794 17 43 09.541+20 30 29.82         20.8 wUEL041F52
         K19L00X  C2019 06 02.55120 17 42 59.951+20 28 23.10         21.5 wUEL041F52
         K19L00X  C2019 06 02.56286 17 42 55.179+20 27 19.68         21.1 wUEL041F52
         K19L00X  C2019 06 02.93598 17 40 28.66 +19 53 32.3          20.2 VVEL041033
         K19L00X  C2019 06 02.93817 17 40 27.80 +19 53 20.3          19.6 VVEL041033
         K19L00X  C2019 06 02.94036 17 40 26.92 +19 53 08.3          19.6 VVEL041033
         K19L00X  C2019 06 02.94256 17 40 26.04 +19 52 56.7          19.6 VVEL041033
         K19L00X  C2019 06 02.94475 17 40 25.17 +19 52 45.1          19.5 VVEL041033
         K19L00X  C2019 06 02.94694 17 40 24.29 +19 52 33.3          19.7 VVEL041033
         K19L00X IC2019 06 03.04089017 39 46.73 +19 44 11.1          21.1 GVEL041L01
         K19L00X KC2019 06 03.04199517 39 46.25 +19 44 05.1          21.1 GVEL041L01
         K19L00X pC2019 06 03.04354117 39 45.62 +19 43 56.9          21.0 GVEL041L01
         K19L00X KC2019 06 03.04618217 39 44.58 +19 43 42.0          20.8 GVEL041L01
         K19L00X KC2019 06 03.26386517 38 20.69 +19 24 18.1          20.5 VuEL041H21
         K19L00X KC2019 06 03.26996317 38 18.29 +19 23 45.6          20.6 VuEL041H21
         K19L00X KC2019 06 03.27626517 38 15.80 +19 23 12.0          20.8 VuEL041H21
         K19L00X  C2019 06 03.28601 17 38 12.56 +19 22 22.1          20.2 GVEL041I52
         K19L00X  C2019 06 03.28698 17 38 12.20 +19 22 18.0          19.8 GVEL041I52
         K19L00X  C2019 06 03.28796 17 38 11.80 +19 22 12.4          20.2 GVEL041I52
         K19L00X  C2019 06 03.28893 17 38 11.43 +19 22 07.2          20.2 GVEL041I52
    
    Observer details:
    033 Karl Schwarzschild Observatory, Tautenburg.  Observers F. Ludwig,
        B. Stecklum.  Measurer B. Stecklum.  1.34-m f/3 Schmidt + CCD.
    F51 Pan-STARRS 1, Haleakala.  Observers J. Bulger, K. Chambers, T. Lowe,
        E. Magnier, A. Schultz, M. Willman.  Measurers S. Chastel, M. Huber,
        Y. Ramanjooloo, R. Wainscoat, R. Weryk.  1.8-m Ritchey-Chretien + CCD.
    F52 Pan-STARRS 2, Haleakala.  Observers J. Bulger, T. Dukes, T. Lowe,
        A. Schultz, M. Willman.  Measurers K. Chambers, S. Chastel, T. de Boer,
        L. Denneau, J. Fairlamb, H. Flewelling, M. Huber, C.-C. Lin, E. Magnier,
        Y. Ramanjooloo, R. Wainscoat, R. Weryk.  1.8-m Ritchey-Chretien + CCD.
    H21 Astronomical Research Observatory, Westfield.  Observer R. Holmes.
        Measurers S. Foglia, L. Buzzi, T. Linder, R. Holmes.  0.81-m f/4.0
        astrograph + CCD.
    I52 Steward Observatory, Mt. Lemmon Station.  Observer D. C. Fuls.  Measurers
        B. M. Africano, E. J. Christensen, G. A. Farneth, D. C. Fuls, A. R. Gibbs,
        A. D. Grauer, H. Groeller, R. A. Kowalski, S. M. Larson, G. J. Leonard,
        T. A. Pruyne, D. Rankin, R. L. Seaman, F. C. Shelly.  1.0-m reflector +
        CCD.
    L01 Visnjan Observatory, Tican.  Observers K. Korlevic, F. Valentine.
        Measurer K. Korlevic.  1.0-m f/2.9 reflector + CCD.
    
    Orbital elements:
    2019 LX                                                  Earth MOID = 0.2479 AU
    Epoch 2019 Apr. 27.0 TT = JDT 2458600.5                 MPC
    M  16.42826              (2000.0)            P               Q
    n   0.52666672     Peri.   27.63064     -0.53625876     -0.74280336
    a   1.5186072      Node    97.50494     +0.68047059     -0.66143959
    e   0.7310836      Incl.   23.84725     +0.49938595     +0.10363803
    P   1.87           H   21.2           G   0.15           U   8
    Residuals in seconds of arc
    190528 F51  0.2-  0.1-    190602 033  0.0   0.1-    190603 H21  0.2+  0.1-
    190528 F51  0.2+  0.1+    190602 033  0.1+  0.0     190603 H21  0.2+  0.0
    190602 F52  0.0   0.1+    190602 033  0.0   0.0     190603 I52  0.2-  0.5-
    190602 F52  0.1-  0.1-    190603 L01  0.2+  0.2+    190603 I52  0.2+  0.6+
    190602 F52  0.2+  0.0     190603 L01  0.3-  0.2+    190603 I52  0.0   0.2+
    190602 033  0.1-  0.2+    190603 L01  0.5-  0.3+    190603 I52  0.2+  0.2+
    190602 033  0.1+  0.1-    190603 L01  0.4-  0.4-
    190602 033  0.0   0.3-    190603 H21  0.1+  0.2-
    
    Ephemeris:
    2019 LX                  a,e,i = 1.52, 0.73, 24                  q = 0.4084
    Date    TT    R. A. (2000) Decl.     Delta      r     Elong.  Phase     V
    2019 05 04    22 51 05.7 +46 05 19   0.3493  0.8661    56.5   103.8    22.4
    ...
    2019 05 19    19 59 40.5 +40 53 35   0.2855  1.0741    94.9    69.8    21.1
    ...
    2019 05 27    18 34 52.4 +30 31 44   0.2889  1.1771   118.1    49.4    20.7
    ...
    2019 06 02    17 46 45.3 +21 18 27   0.3137  1.2507   133.4    36.1    20.6
    2019 06 03    17 40 03.4 +19 48 07   0.3197  1.2627   135.6    34.2    20.6
    2019 06 04    17 33 42.4 +18 19 23   0.3261  1.2746   137.7    32.4    20.7
    ...
    2019 06 10    17 02 15.0 +10 13 05   0.3746  1.3443   146.8    24.4    20.8
    ...
    2019 06 18    16 34 20.8 +01 46 50   0.4610  1.4330   149.7    21.0    21.3
    ...
    2019 07 03    16 08 46.9 -08 16 18   0.6693  1.5868   139.6    24.5    22.5
    
    A. U. Tomatic                (C) Copyright 2019 MPC           M.P.E.C. 2019-L41
    

    Read MPEC 2019-L40 Read MPEC 2019-L42


    MPEC number:

    Enter an MPEC number in one of the following forms:

    • 1997-B01 (the full form)
    • J97B01 (the packed version of the full form)
    • B01 (the abbreviated form)